Location: Unspecified
(0.0000°N, 0.0000°E)
Time: 13:46:12
(UTC+00:00)

TIGRISAT - Visible Passes

Search period start: 09 December 2019 00:00
Search period end: 19 December 2019 00:00
Orbit: 606 x 688 km, 97.7° (Epoch: 08 December)

Date Brightness Start Highest point End Pass type
(mag) Time Alt. Az. Time Alt. Az. Time Alt. Az.
10 Dec ? 20:02:40 12° S 20:02:40 12° S 20:02:56 10° S visible
11 Dec ? 20:28:35 12° SSW 20:28:35 12° SSW 20:28:51 10° SSW visible
14 Dec ? 20:08:36 13° S 20:08:36 13° S 20:09:06 10° S visible
15 Dec ? 20:34:31 12° SSW 20:34:31 12° SSW 20:34:50 10° SSW visible
17 Dec ? 19:48:38 12° SSE 19:48:38 12° SSE 19:48:56 10° SSE visible
18 Dec ? 20:14:32 14° S 20:14:32 14° S 20:15:12 10° S visible
